Flag for Brazil Past Weather in São José do Rio Preto, São Paulo, Brazil — Yesterday and Last 2 Weeks

Now
73 °F

Passing clouds.


Feels Like: 70 °F
Forecast: N/A
Wind: No wind

Location: Leite Lopes / Ribeir

Current Time: Dec 4, 2016 at 8:34:27 pm

Latest Report: Dec 4, 2016 at 8:00 pm


Visibility: N/A

Pressure: 29.74 "Hg (28.06 "Hg at 503m altitude)

Humidity: 94%

Dew Point: 72 °F

Location of São José do Rio PretoLocation

Past Weather in São José do Rio Preto — Graph

°F

São José do Rio Preto Temperature Yesterday

Maximum temperature yesterday: 90 °F (at 2:00 pm)
Minimum temperature yesterday: 70 °F (at 8:00 pm)
Average temperature yesterday: 78 °F

High & Low Weather Summary for the Past Weeks

 TemperatureHumidityPressure
High93 °F (Nov 24, 4:00 pm)100% (Nov 25, 8:00 pm)30.07 "Hg (Nov 25, 8:00 pm)
Low55 °F (Nov 20, 4:00 am)24% (Nov 20, 6:00 pm)29.71 "Hg (Dec 4, 5:00 pm)
Average77 °F69%29.93 "Hg
* Reported Nov 19 7:00 pm — Dec 4 7:00 pm, São José do Rio Preto, Weather by CustomWeather, © 2016

Note: Actual official high and low records may vary slightly from our data, if they occured in-between our weather recording intervals... More about our weather records

Advertising

São José do Rio Preto Weather History for the Previous 24 Hours

Scroll right to see more
 ConditionsComfort  
Time TempWeatherWind HumidityBarometerVisibility
7:00 pm
Sun, Dec 4
75 °FScattered clouds.6 mph89%29.71 "HgN/A
6:00 pm75 °FPartly sunny.5 mph89%29.71 "HgN/A
5:00 pm73 °FScattered showers. Partly sunny.5 mph94%29.71 "HgN/A
4:00 pm70 °FStrong thunderstorms. Partly sunny.8 mph100%N/A1 mi
2:00 pm77 °FThunderstorms. Partly sunny.8 mph89%29.77 "HgN/A
1:00 pm81 °FThunderstorms. Partly sunny.10 mph70%29.74 "HgN/A
12:00 pm79 °FScattered clouds.9 mph79%29.80 "HgN/A
11:00 am77 °FBroken clouds.8 mph79%29.83 "HgN/A
10:00 am75 °FBroken clouds.7 mph83%29.83 "HgN/A
9:00 am72 °FBroken clouds.6 mph88%29.83 "HgN/A
8:00 am70 °FPassing clouds.3 mph94%29.80 "HgN/A
7:00 am68 °FPassing clouds.No wind100%29.80 "HgN/A
6:00 am68 °FClear.No wind100%29.77 "Hg10 mi
5:00 am70 °FClear.2 mph94%29.80 "Hg10 mi
1:00 am70 °FOvercast.6 mph94%29.86 "HgN/A
12:00 am70 °FClear.5 mph94%29.89 "Hg10 mi
11:00 pm
Sat, Dec 3
70 °FClear.3 mph94%29.92 "Hg10 mi
10:00 pm70 °FLight rain. Mostly cloudy.2 mph100%29.89 "HgN/A
9:00 pm70 °FLight rain. Mostly cloudy.3 mph94%29.92 "Hg5 mi
8:00 pm70 °FRain. Passing clouds.12 mph100%29.92 "Hg2 mi
Weather by CustomWeather, © 2016

See weather overviewHow to use our weather pages